ALOS-4 (DAICHI-4)

Last updated on Mon Sep 07 2026 00:02:46 GMT+0000 (Coordinated Universal Time)

1 60182U 24123A 26249.58847139 .00000715 00000+0 10266-3 0 9997 2 60182 97.9220 345.5928 0001453 98.7843 261.3533 14.79468132117913
UTC large
Height (km)
Speed (km/s)
/
Latitude / Longitude
Inclination (degrees)
Orbital Period (minutes)
Azimuth
Elevation
Range (km)
Doppler Factor

Next 0 passes for location: London (51.5072 / 0.1276)

No passes found over London.
ALOS-4 (DAICHI-4)